When you browse on this site, cookies collect data to enhance your experience and personalize the content and advertising you see.
Visit our Privacy Policy to learn more. By continuing to use the site, you agree to this use of cookies and data.
  • In Schweiz
  • Länderverzeichnis
  • Für 7 Tage
  • Wassertemperatur
  • Satellitenkarten
  • Wetterkarte
  • Widgets
  • user-avatar
    Anmelden

    Stündliche Wetter Saidpur

    Heute, 23 April, Dienstag

    Zeit Temperatur Niederschläge Wind Luftdruck Luftfeuchtigkeit
    00:00 +29°C° 0 mm 3 m/S 753 mmHg 56%
    01:00 +28°C° 0.7 mm 3 m/S 753 mmHg 59%
    02:00 +28°C° 0.7 mm 3 m/S 753 mmHg 61%
    03:00 +27°C° 0.7 mm 3 m/S 753 mmHg 64%
    04:00 +27°C° 0.7 mm 3 m/S 753 mmHg 65%
    05:00 +27°C° 0.7 mm 3 m/S 753 mmHg 67%
    06:00 +26°C° 0.7 mm 3 m/S 754 mmHg 69%
    07:00 +28°C° 0.5 mm 3 m/S 754 mmHg 65%
    08:00 +29°C° 0.5 mm 3 m/S 755 mmHg 61%
    09:00 +30°C° 0.5 mm 4 m/S 755 mmHg 57%
    10:00 +33°C° 0 mm 3 m/S 755 mmHg 52%
    11:00 +34°C° 0 mm 3 m/S 755 mmHg 46%
    12:00 +36°C° 0 mm 3 m/S 755 mmHg 41%
    13:00 +36°C° 0 mm 2 m/S 754 mmHg 38%
    14:00 +37°C° 0 mm 2 m/S 753 mmHg 36%
    15:00 +37°C° 0 mm 1 m/S 752 mmHg 33%
    16:00 +37°C° 0 mm 1 m/S 752 mmHg 34%
    17:00 +37°C° 0 mm 2 m/S 752 mmHg 36%
    18:00 +37°C° 0 mm 2 m/S 751 mmHg 37%
    19:00 +35°C° 0.1 mm 2 m/S 752 mmHg 40%
    20:00 +34°C° 0.1 mm 3 m/S 753 mmHg 44%
    21:00 +33°C° 0.1 mm 3 m/S 753 mmHg 48%
    22:00 +33°C° 0 mm 3 m/S 754 mmHg 48%
    23:00 +32°C° 0 mm 2 m/S 754 mmHg 49%

    Morgen, 24 April, Mittwoch

    Zeit Temperatur Niederschläge Wind Luftdruck Luftfeuchtigkeit
    00:00 +31°C° 0 mm 2 m/S 754 mmHg 49%
    01:00 +31°C° 0 mm 2 m/S 753 mmHg 51%
    02:00 +30°C° 0 mm 2 m/S 753 mmHg 53%
    03:00 +30°C° 0 mm 2 m/S 753 mmHg 54%
    04:00 +29°C° 0 mm 2 m/S 753 mmHg 55%
    05:00 +29°C° 0 mm 2 m/S 753 mmHg 56%
    06:00 +29°C° 0 mm 2 m/S 754 mmHg 57%
    07:00 +30°C° 0 mm 2 m/S 754 mmHg 52%
    08:00 +32°C° 0 mm 2 m/S 755 mmHg 46%
    09:00 +35°C° 0 mm 3 m/S 755 mmHg 40%
    10:00 +36°C° 0 mm 3 m/S 755 mmHg 37%
    11:00 +37°C° 0 mm 2 m/S 755 mmHg 34%
    12:00 +39°C° 0 mm 2 m/S 754 mmHg 31%
    13:00 +39°C° 0 mm 2 m/S 754 mmHg 30%
    14:00 +40°C° 0 mm 1 m/S 753 mmHg 28%
    15:00 +41°C° 0 mm 1 m/S 752 mmHg 26%
    16:00 +40°C° 0 mm 1 m/S 752 mmHg 28%
    17:00 +37°C° 0 mm 0 m/S 751 mmHg 30%
    18:00 +36°C° 0 mm 0 m/S 751 mmHg 31%
    19:00 +37°C° 0 mm 1 m/S 751 mmHg 33%
    20:00 +37°C° 0 mm 2 m/S 752 mmHg 34%
    21:00 +36°C° 0 mm 2 m/S 752 mmHg 36%
    22:00 +35°C° 0 mm 2 m/S 752 mmHg 37%
    23:00 +35°C° 0 mm 2 m/S 752 mmHg 38%

    übermorgen, 25 April, Donnerstag

    Zeit Temperatur Niederschläge Wind Luftdruck Luftfeuchtigkeit
    00:00 +34°C° 0 mm 2 m/S 752 mmHg 39%
    01:00 +34°C° 0 mm 2 m/S 752 mmHg 41%
    02:00 +34°C° 0 mm 2 m/S 752 mmHg 42%
    03:00 +32°C° 0 mm 2 m/S 751 mmHg 44%
    04:00 +32°C° 0 mm 2 m/S 752 mmHg 46%
    05:00 +31°C° 0 mm 2 m/S 752 mmHg 47%
    06:00 +31°C° 0 mm 2 m/S 752 mmHg 48%
    07:00 +32°C° 0 mm 2 m/S 753 mmHg 46%
    08:00 +34°C° 0 mm 3 m/S 753 mmHg 43%
    09:00 +36°C° 0 mm 3 m/S 754 mmHg 41%
    10:00 +37°C° 0 mm 3 m/S 754 mmHg 38%
    11:00 +38°C° 0 mm 3 m/S 754 mmHg 36%
    12:00 +39°C° 0 mm 3 m/S 753 mmHg 34%
    13:00 +40°C° 0 mm 2 m/S 752 mmHg 31%
    14:00 +41°C° 0 mm 2 m/S 751 mmHg 29%
    15:00 +42°C° 0 mm 1 m/S 750 mmHg 27%
    16:00 +38°C° 0 mm 0 m/S 750 mmHg 28%
    17:00 +38°C° 0 mm 0 m/S 750 mmHg 29%
    18:00 +37°C° 0 mm 0 m/S 750 mmHg 31%
    19:00 +39°C° 0 mm 1 m/S 750 mmHg 32%
    20:00 +37°C° 0 mm 1 m/S 751 mmHg 34%
    21:00 +37°C° 0 mm 2 m/S 751 mmHg 35%
    22:00 +36°C° 0 mm 2 m/S 751 mmHg 37%
    23:00 +36°C° 0 mm 2 m/S 751 mmHg 38%

    26 April, Freitag

    Zeit Temperatur Niederschläge Wind Luftdruck Luftfeuchtigkeit
    00:00 +35°C° 0 mm 2 m/S 751 mmHg 40%
    01:00 +35°C° 0 mm 2 m/S 751 mmHg 41%
    02:00 +34°C° 0 mm 2 m/S 750 mmHg 42%
    03:00 +33°C° 0 mm 1 m/S 750 mmHg 43%
    04:00 +32°C° 0 mm 1 m/S 750 mmHg 48%
    05:00 +32°C° 0 mm 1 m/S 750 mmHg 53%
    06:00 +31°C° 0 mm 1 m/S 750 mmHg 57%
    07:00 +33°C° 0 mm 1 m/S 751 mmHg 53%
    08:00 +34°C° 0 mm 1 m/S 752 mmHg 50%
    09:00 +37°C° 0 mm 2 m/S 752 mmHg 46%
    10:00 +38°C° 0 mm 2 m/S 752 mmHg 42%
    11:00 +39°C° 0 mm 2 m/S 752 mmHg 38%
    12:00 +41°C° 0 mm 2 m/S 751 mmHg 34%
    13:00 +42°C° 0 mm 3 m/S 751 mmHg 32%
    14:00 +42°C° 0 mm 3 m/S 750 mmHg 30%
    15:00 +43°C° 0 mm 3 m/S 749 mmHg 29%
    16:00 +42°C° 0 mm 3 m/S 749 mmHg 31%
    17:00 +40°C° 0 mm 2 m/S 749 mmHg 33%
    18:00 +39°C° 0 mm 2 m/S 749 mmHg 36%
    19:00 +39°C° 0 mm 2 m/S 749 mmHg 37%
    20:00 +37°C° 0 mm 1 m/S 750 mmHg 37%
    21:00 +37°C° 0 mm 1 m/S 750 mmHg 38%
    22:00 +36°C° 0 mm 1 m/S 750 mmHg 39%
    23:00 +36°C° 0 mm 2 m/S 750 mmHg 41%

    27 April, Samstag

    Zeit Temperatur Niederschläge Wind Luftdruck Luftfeuchtigkeit
    00:00 +36°C° 0 mm 2 m/S 750 mmHg 42%
    01:00 +35°C° 0 mm 2 m/S 750 mmHg 45%
    02:00 +34°C° 0 mm 2 m/S 749 mmHg 47%
    03:00 +32°C° 0 mm 2 m/S 749 mmHg 50%
    04:00 +32°C° 0 mm 2 m/S 749 mmHg 55%
    05:00 +32°C° 0 mm 2 m/S 750 mmHg 61%
    06:00 +31°C° 0 mm 2 m/S 750 mmHg 66%
    07:00 +34°C° 0 mm 2 m/S 751 mmHg 62%
    08:00 +35°C° 0 mm 2 m/S 751 mmHg 58%
    09:00 +36°C° 0 mm 2 m/S 752 mmHg 53%
    10:00 +38°C° 0 mm 2 m/S 752 mmHg 49%
    11:00 +39°C° 0 mm 2 m/S 751 mmHg 44%
    12:00 +42°C° 0 mm 3 m/S 751 mmHg 39%
    13:00 +42°C° 0 mm 3 m/S 750 mmHg 38%
    14:00 +41°C° 0 mm 2 m/S 749 mmHg 37%
    15:00 +41°C° 0 mm 2 m/S 748 mmHg 36%
    16:00 +40°C° 0 mm 3 m/S 748 mmHg 37%
    17:00 +40°C° 0 mm 3 m/S 748 mmHg 39%
    18:00 +39°C° 0 mm 3 m/S 748 mmHg 40%
    19:00 +38°C° 0 mm 4 m/S 748 mmHg 43%
    20:00 +37°C° 0 mm 4 m/S 749 mmHg 45%
    21:00 +36°C° 0 mm 5 m/S 749 mmHg 47%
    22:00 +35°C° 0 mm 5 m/S 749 mmHg 51%
    23:00 +34°C° 0 mm 5 m/S 749 mmHg 55%

    28 April, Sonntag

    Zeit Temperatur Niederschläge Wind Luftdruck Luftfeuchtigkeit
    00:00 +33°C° 0 mm 5 m/S 750 mmHg 58%
    01:00 +32°C° 1.1 mm 5 m/S 749 mmHg 64%
    02:00 +32°C° 1.1 mm 4 m/S 749 mmHg 69%
    03:00 +30°C° 1.1 mm 4 m/S 749 mmHg 74%
    04:00 +30°C° 0.4 mm 4 m/S 749 mmHg 76%
    05:00 +30°C° 0.4 mm 4 m/S 749 mmHg 78%
    06:00 +30°C° 0.4 mm 3 m/S 749 mmHg 79%
    07:00 +32°C° 0.2 mm 4 m/S 750 mmHg 77%
    08:00 +32°C° 0.2 mm 4 m/S 751 mmHg 75%
    09:00 +33°C° 0.2 mm 4 m/S 751 mmHg 73%
    10:00 +34°C° 0.1 mm 4 m/S 751 mmHg 68%
    11:00 +35°C° 0.1 mm 4 m/S 751 mmHg 64%
    12:00 +37°C° 0.1 mm 4 m/S 750 mmHg 59%
    13:00 +38°C° 0 mm 4 m/S 749 mmHg 54%
    14:00 +39°C° 0 mm 3 m/S 748 mmHg 50%
    15:00 +40°C° 0 mm 3 m/S 748 mmHg 45%
    16:00 +40°C° 0 mm 4 m/S 747 mmHg 48%
    17:00 +40°C° 0 mm 5 m/S 747 mmHg 51%
    18:00 +39°C° 0 mm 5 m/S 747 mmHg 53%
    19:00 +36°C° 0.1 mm 6 m/S 748 mmHg 59%
    20:00 +35°C° 0.1 mm 6 m/S 748 mmHg 64%
    21:00 +33°C° 0.1 mm 7 m/S 749 mmHg 69%
    22:00 +32°C° 0.2 mm 7 m/S 749 mmHg 72%
    23:00 +30°C° 0.2 mm 6 m/S 749 mmHg 75%
    Mehr zeigen